CZ-6A DEB, 54305

Orbit data source: Space-Track

CZ-6A DEB, 54305 is space debris in SSO originally from a launch on Fri, 11 Nov 2022 UTC launched from the Taiyaun Space Center, China (TSC). Debris objects in space refer to the collection of defunct objects orbiting the Earth. Examples of debris include non-operational satellites, rocket bodies, and fragments generated from explosions, collisions, or faulty payload assembly.

Loading next visibility...
Identifier
54305, 2022-151AY
Orbit
SSO
Country
Flag of CNCN / PRC
Related business
Manufacturer
SAST
Mission
Spacecraft
Bus & Motor
Unknown
Mass
Unknown
Launch date (UTC)
2022-11-11 (4 years ago)
Launch vehicle
Unknown
Launch site
Taiyaun Space Center, China (TSC)
Object type
Payload
Rocket body
Debris
Shape & HBR
Unknown shape, 0.1 m
Radar Cross Section
Medium (>0.1 m² and <1 m²)

Expand to show TLE details & history
Last TLE update: 7 hours ago

TLE from 7 hours ago
0 CZ-6A DEB
1 54305U 22151AY  26249.60002831  .00000163  00000-0  87662-4 0  9994
2 54305  98.7496 275.8053 0054862 113.4652 247.2307 14.24676008197896
Epoch: 2026-09-06T14:24Z
TLE epoch observation values (Epoch: 2026-09-06T14:24:02.445Z)
Latitude
-0.00004°
Longitude
74.10229°
Altitude
827.95 km
Speed
7.431 km/s
True Right ascension
18h 23m 13s
True Declination
0° 00' 00"
Sunlit
Object was in daylight at epoch
Visualization orbit readout
Latitude
Unknown
Longitude
Unknown
Altitude
Unknown
Speed
Unknown
Apparent Right ascension
Unknown
Apparent Declination
Unknown
Sunlit
N/A
Visualization observer readout
Local Sidereal Time
13:34:49
Azimuth
Unknown
Elevation
Unknown
Doppler factor
Unknown
Orbital elements
Apogee altitude
846.154 km
Perigee altitude
767.319 km
Semi-major axis
7,184.873 km
Eccentricity
0.00549
Inclination
98.7496°
RAAN
275.8053°
Arg. of periapsis
113.4652°
True anomaly
246.65256°
Mean anomaly
247.2307°
Eccentric anomaly
246.94148°
Mean motion
3.56381 °/min
Orbital period
101.02 mins
BSTAR
0.000087662
Loading maneuver chart data...
Computing Atmospheric mass density...
Loading historical data...
Loading historical data...
Loading historical data...
Loading historical data...
Loading historical data...
Loading historical data...
Loading historical data...

Documentation

Showing up to 5 results
|